This is the latest recevied weather packets stored in our database for station/object KI5GCD-13. If no packets are shown the sender has not sent any weather packets the latest 10 day(s).
| Time | Temp. | Humidity | Pressure | Rain* | Wind** | Luminosity | Snow |
|---|---|---|---|---|---|---|---|
| 1777934387 | 25° C | 56% | 1001.6 hPa | 0 mm | 2.24 m/s, 244° | - | - |
| 1777934088 | 25° C | 55% | 1001.6 hPa | 0 mm | 2.68 m/s, 183° | - | - |
| 1777933788 | 25.56° C | 57% | 1001.6 hPa | 0 mm | 0.89 m/s, 236° | - | - |
| 1777933487 | 25.56° C | 55% | 1001.5 hPa | 0 mm | 1.34 m/s, 245° | - | - |
| 1777933187 | 25.56° C | 56% | 1001.5 hPa | 0 mm | 0.89 m/s, 241° | - | - |
| 1777932887 | 25.56° C | 56% | 1001.6 hPa | 0 mm | 0 m/s | - | - |
| 1777932587 | 25.56° C | 53% | 1001.7 hPa | 0 mm | 4.02 m/s, 235° | - | - |
| 1777932287 | 25.56° C | 55% | 1001.5 hPa | 0 mm | 0.89 m/s, 232° | - | - |
| 1777931988 | 25° C | 53% | 1001.9 hPa | 0 mm | 2.68 m/s, 213° | - | - |
| 1777931687 | 25.56° C | 53% | 1001.9 hPa | 0 mm | 4.02 m/s, 200° | - | - |
| 1777931387 | 26.11° C | 56% | 1002 hPa | 0 mm | 0.89 m/s, 230° | - | - |
| 1777931087 | 25.56° C | 56% | 1001.9 hPa | 0 mm | 0 m/s | - | - |
| 1777930788 | 25.56° C | 54% | 1001.7 hPa | 0 mm | 1.79 m/s, 185° | - | - |
| 1777930487 | 26.11° C | 55% | 1001.9 hPa | 0 mm | 0.89 m/s, 260° | - | - |
| 1777930187 | 26.11° C | 53% | 1002 hPa | 0 mm | 2.24 m/s, 232° | - | - |
| 1777929887 | 26.11° C | 53% | 1002.1 hPa | 0 mm | 1.79 m/s, 233° | - | - |
| 1777929587 | 26.11° C | 52% | 1002.1 hPa | 0 mm | 1.79 m/s, 337° | - | - |
| 1777929287 | 26.11° C | 53% | 1002.3 hPa | 0 mm | 0.89 m/s, 242° | - | - |
| 1777928988 | 25.56° C | 56% | 1002.3 hPa | 0 mm | 1.34 m/s, 219° | - | - |
| 1777928687 | 25.56° C | 54% | 1002.6 hPa | 0 mm | 1.79 m/s, 280° | - | - |
| 1777928387 | 25.56° C | 52% | 1002.4 hPa | 0 mm | 1.79 m/s, 238° | - | - |
| 1777928087 | 26.11° C | 54% | 1002.6 hPa | 0 mm | 0.89 m/s, 261° | - | - |
| 1777927787 | 25.56° C | 54% | 1002.6 hPa | 0 mm | 1.79 m/s, 193° | - | - |
| 1777927487 | 25.56° C | 53% | 1002.7 hPa | 0 mm | 3.13 m/s, 206° | - | - |
| 1777927187 | 25.56° C | 53% | 1002.8 hPa | 0 mm | 3.58 m/s, 222° | - | - |
* Rain latest hour (hover to see other rain measurements)
** Current wind speed in m/s (hover to see current wind gust speed)